EN

Hourly Weather Aberdeen

Today, 15 June, Tuesday

Time Temperature Precipitation Wind Pressure Humidity
00:00 +7°C° 0 mm 2 mps 757 mmHg 86%
01:00 +7°C° 0 mm 2 mps 757 mmHg 87%
02:00 +6°C° 0 mm 2 mps 757 mmHg 89%
03:00 +6°C° 0 mm 2 mps 757 mmHg 91%
04:00 +7°C° 0 mm 2 mps 757 mmHg 87%
05:00 +9°C° 0 mm 1 mps 757 mmHg 84%
06:00 +10°C° 0 mm 1 mps 757 mmHg 81%
07:00 +11°C° 0 mm 1 mps 757 mmHg 78%
08:00 +12°C° 0 mm 2 mps 757 mmHg 74%
09:00 +14°C° 0 mm 2 mps 757 mmHg 70%
10:00 +13°C° 0 mm 3 mps 756 mmHg 68%
11:00 +14°C° 0 mm 4 mps 756 mmHg 66%
12:00 +15°C° 0 mm 5 mps 756 mmHg 64%
13:00 +14°C° 0 mm 5 mps 755 mmHg 68%
14:00 +14°C° 0 mm 5 mps 754 mmHg 72%
15:00 +13°C° 0 mm 5 mps 754 mmHg 75%
16:00 +13°C° 0 mm 4 mps 753 mmHg 76%
17:00 +13°C° 0 mm 4 mps 752 mmHg 76%
18:00 +13°C° 0 mm 4 mps 751 mmHg 76%
19:00 +13°C° 0.1 mm 3 mps 751 mmHg 79%
20:00 +13°C° 0.1 mm 2 mps 751 mmHg 81%
21:00 +13°C° 0.1 mm 2 mps 750 mmHg 83%
22:00 +13°C° 0.3 mm 2 mps 749 mmHg 84%
23:00 +13°C° 0.3 mm 2 mps 749 mmHg 86%

Tomorrow, 16 June, Wednesday

Time Temperature Precipitation Wind Pressure Humidity
00:00 +13°C° 0.3 mm 2 mps 748 mmHg 87%
01:00 +13°C° 0.2 mm 3 mps 748 mmHg 89%
02:00 +13°C° 0.2 mm 4 mps 747 mmHg 91%
03:00 +14°C° 0.2 mm 5 mps 747 mmHg 93%
04:00 +14°C° 0 mm 4 mps 747 mmHg 93%
05:00 +14°C° 0 mm 4 mps 747 mmHg 93%
06:00 +14°C° 0 mm 4 mps 747 mmHg 92%
07:00 +13°C° 0 mm 4 mps 747 mmHg 90%
08:00 +13°C° 0 mm 4 mps 747 mmHg 88%
09:00 +13°C° 0 mm 3 mps 747 mmHg 86%
10:00 +13°C° 0 mm 4 mps 747 mmHg 82%
11:00 +14°C° 0 mm 5 mps 747 mmHg 78%
12:00 +15°C° 0 mm 6 mps 747 mmHg 74%
13:00 +15°C° 0 mm 6 mps 747 mmHg 70%
14:00 +16°C° 0 mm 6 mps 747 mmHg 67%
15:00 +16°C° 0 mm 6 mps 747 mmHg 63%
16:00 +15°C° 0 mm 6 mps 748 mmHg 67%
17:00 +15°C° 0 mm 5 mps 748 mmHg 71%
18:00 +14°C° 0 mm 5 mps 748 mmHg 74%
19:00 +13°C° 0 mm 4 mps 748 mmHg 79%
20:00 +12°C° 0 mm 3 mps 748 mmHg 83%
21:00 +12°C° 0 mm 2 mps 749 mmHg 88%
22:00 +10°C° 0 mm 2 mps 749 mmHg 88%
23:00 +11°C° 0 mm 1 mps 749 mmHg 89%

Day after tomorrow, 17 June, Thursday

Time Temperature Precipitation Wind Pressure Humidity
00:00 +11°C° 0 mm 1 mps 749 mmHg 89%
01:00 +10°C° 0 mm 1 mps 749 mmHg 90%
02:00 +10°C° 0 mm 1 mps 749 mmHg 90%
03:00 +9°C° 0 mm 2 mps 749 mmHg 91%
04:00 +10°C° 0 mm 2 mps 749 mmHg 90%
05:00 +12°C° 0 mm 2 mps 749 mmHg 89%
06:00 +12°C° 0 mm 2 mps 749 mmHg 87%
07:00 +13°C° 0 mm 2 mps 750 mmHg 82%
08:00 +15°C° 0 mm 2 mps 750 mmHg 76%
09:00 +16°C° 0 mm 3 mps 750 mmHg 71%
10:00 +17°C° 0 mm 3 mps 750 mmHg 67%
11:00 +17°C° 0 mm 3 mps 750 mmHg 63%
12:00 +18°C° 0 mm 3 mps 750 mmHg 59%
13:00 +18°C° 0 mm 3 mps 750 mmHg 60%
14:00 +18°C° 0 mm 3 mps 750 mmHg 60%
15:00 +18°C° 0 mm 4 mps 750 mmHg 61%
16:00 +18°C° 0 mm 4 mps 751 mmHg 63%
17:00 +17°C° 0 mm 4 mps 751 mmHg 65%
18:00 +17°C° 0 mm 4 mps 751 mmHg 66%
19:00 +14°C° 0 mm 4 mps 752 mmHg 71%
20:00 +12°C° 0 mm 3 mps 752 mmHg 76%
21:00 +10°C° 0 mm 2 mps 753 mmHg 81%
22:00 +10°C° 0 mm 2 mps 753 mmHg 82%
23:00 +10°C° 0 mm 2 mps 754 mmHg 83%

18 June, Friday

Time Temperature Precipitation Wind Pressure Humidity
00:00 +9°C° 0 mm 2 mps 754 mmHg 84%
01:00 +9°C° 0 mm 2 mps 755 mmHg 84%
02:00 +10°C° 0 mm 2 mps 755 mmHg 84%
03:00 +10°C° 0 mm 2 mps 756 mmHg 84%
04:00 +10°C° 0 mm 2 mps 756 mmHg 85%
05:00 +10°C° 0 mm 2 mps 756 mmHg 86%
06:00 +10°C° 0 mm 2 mps 757 mmHg 88%
07:00 +10°C° 0 mm 2 mps 757 mmHg 85%
08:00 +12°C° 0 mm 2 mps 757 mmHg 83%
09:00 +11°C° 0 mm 3 mps 757 mmHg 81%
10:00 +11°C° 0 mm 3 mps 757 mmHg 79%
11:00 +12°C° 0 mm 3 mps 757 mmHg 76%
12:00 +12°C° 0 mm 4 mps 758 mmHg 74%
13:00 +12°C° 0 mm 4 mps 758 mmHg 74%
14:00 +12°C° 0 mm 4 mps 757 mmHg 73%
15:00 +12°C° 0 mm 5 mps 757 mmHg 73%
16:00 +12°C° 0 mm 4 mps 757 mmHg 75%
17:00 +11°C° 0 mm 4 mps 757 mmHg 77%
18:00 +11°C° 0 mm 4 mps 757 mmHg 78%
19:00 +10°C° 0 mm 3 mps 757 mmHg 81%
20:00 +10°C° 0 mm 2 mps 757 mmHg 83%
21:00 +9°C° 0 mm 2 mps 757 mmHg 86%
22:00 +10°C° 0 mm 1 mps 757 mmHg 86%
23:00 +10°C° 0 mm 1 mps 756 mmHg 87%

19 June, Saturday

Time Temperature Precipitation Wind Pressure Humidity
00:00 +9°C° 0 mm 1 mps 756 mmHg 87%
01:00 +9°C° 0 mm 1 mps 756 mmHg 87%
02:00 +9°C° 0 mm 1 mps 756 mmHg 87%
03:00 +9°C° 0 mm 1 mps 755 mmHg 88%
04:00 +9°C° 0 mm 1 mps 755 mmHg 86%
05:00 +10°C° 0 mm 1 mps 755 mmHg 85%
06:00 +10°C° 0 mm 1 mps 755 mmHg 84%
07:00 +11°C° 0 mm 1 mps 755 mmHg 83%
08:00 +12°C° 0 mm 1 mps 755 mmHg 81%
09:00 +12°C° 0 mm 2 mps 755 mmHg 80%
10:00 +13°C° 0 mm 2 mps 755 mmHg 77%
11:00 +13°C° 0 mm 3 mps 754 mmHg 75%
12:00 +14°C° 0 mm 3 mps 754 mmHg 72%
13:00 +14°C° 0.1 mm 3 mps 754 mmHg 73%
14:00 +14°C° 0.1 mm 4 mps 754 mmHg 74%
15:00 +14°C° 0.1 mm 4 mps 753 mmHg 75%
16:00 +13°C° 0.1 mm 5 mps 753 mmHg 78%
17:00 +13°C° 0.1 mm 5 mps 753 mmHg 80%
18:00 +12°C° 0.1 mm 5 mps 753 mmHg 83%
19:00 +12°C° 0 mm 5 mps 753 mmHg 86%
20:00 +11°C° 0 mm 4 mps 753 mmHg 88%
21:00 +10°C° 0 mm 4 mps 753 mmHg 91%
22:00 +10°C° 0 mm 4 mps 753 mmHg 92%
23:00 +10°C° 0 mm 4 mps 753 mmHg 92%

20 June, Sunday

Time Temperature Precipitation Wind Pressure Humidity
00:00 +10°C° 0 mm 3 mps 753 mmHg 93%
01:00 +10°C° 0 mm 3 mps 752 mmHg 94%
02:00 +10°C° 0 mm 4 mps 752 mmHg 95%
03:00 +8°C° 0 mm 4 mps 752 mmHg 96%
04:00 +10°C° 0 mm 4 mps 751 mmHg 93%
05:00 +10°C° 0 mm 4 mps 751 mmHg 91%
06:00 +10°C° 0 mm 5 mps 751 mmHg 89%
07:00 +10°C° 0 mm 5 mps 750 mmHg 83%
08:00 +11°C° 0 mm 6 mps 750 mmHg 77%
09:00 +11°C° 0 mm 6 mps 749 mmHg 71%
10:00 +10°C° 0.6 mm 6 mps 748 mmHg 78%
11:00 +10°C° 0.6 mm 6 mps 748 mmHg 85%
12:00 +9°C° 0.6 mm 6 mps 747 mmHg 91%
13:00 +8°C° 0.5 mm 6 mps 746 mmHg 92%
14:00 +8°C° 0.5 mm 7 mps 746 mmHg 93%
15:00 +7°C° 0.5 mm 8 mps 745 mmHg 93%
16:00 +8°C° 0.4 mm 7 mps 744 mmHg 94%
17:00 +8°C° 0.4 mm 7 mps 743 mmHg 94%
18:00 +8°C° 0.4 mm 7 mps 743 mmHg 95%
19:00 +8°C° 0.4 mm 5 mps 742 mmHg 95%
20:00 +8°C° 0.4 mm 4 mps 742 mmHg 95%
21:00 +10°C° 0.4 mm 3 mps 741 mmHg 95%
22:00 +10°C° 0 mm 2 mps 742 mmHg 95%
23:00 +11°C° 0 mm 1 mps 742 mmHg 94%
Show more